This demonstration page uses our WeatherBlox Daily Observations layout. Learn more.

Left ArrowRight Arrow

Hourly Observations for February 9, 2016

Temp ( °F °C ) Dew Point ( °F °C ) Humidity (%) Winds ( mph kmh ) Pressure ( in mb ) Visibility ( mi km ) Precip ( " mm )
12:17 am 00:17 Cloudy with Light Rain 43 6.1 39 3.9 86 86 Calm 29.62 1003 8 13 0.00 0.03
12:59 am 00:59 Cloudy 43 6.1 39 3.9 86 86 NNW 5 7 29.60 1002 10 16 0.01 0.25
1:59 am 01:59 Cloudy 43 6.1 40 4.4 89 89 NNE 3 6 29.59 1002 9 14 0.00 0.00
2:59 am 02:59 Cloudy 43 6.1 39 3.9 86 86 N 3 6 29.57 1001 10 16 0.00 0.00
3:59 am 03:59 Cloudy 42 5.6 39 3.9 89 89 NNW 3 6 29.55 1001 9 14 0.00 0.00
4:43 am 04:43 Cloudy 43 6.1 39 3.9 86 86 W 5 7 29.56 1001 9 14 0.00 0.00
4:59 am 04:59 Cloudy 42 5.6 39 3.9 89 89 W 5 7 29.56 1001 9 14 0.00 0.00
5:34 am 05:34 Cloudy 42 5.6 39 3.9 89 89 W 6 9 29.56 1001 7 11 0.00 0.00
5:59 am 05:59 Mostly Cloudy 41 5 38 3.3 89 89 W 12 19 29.56 1001 7 11 0.00 0.00
6:10 am 06:10 Partly Cloudy 40 4.4 37 2.8 89 89 W 12 19 29.56 1001 9 14 0.00 0.00
6:59 am 06:59 Partly Cloudy 40 4.4 36 2.2 86 86 W 7 11 29.57 1001 7 11 0.00 0.00
7:40 am 07:40 Partly Cloudy with Mist and Fog 40 4.4 36 2.2 86 86 W 12 19 29.59 1002 6 10 0.00 0.00
7:59 am 07:59 Mostly Cloudy 40 4.4 36 2.2 86 86 W 13 20 29.59 1002 7 11 0.00 0.00
8:59 am 08:59 Cloudy 40 4.4 36 2.2 86 86 W 7 11 29.60 1002 7 11 0.00 0.00
9:59 am 09:59 Cloudy 41 5 37 2.8 86 86 W 8 13 29.61 1003 7 11 0.00 0.00
10:59 am 10:59 Mostly Cloudy 42 5.6 35 1.7 76 76 W 10 17 29.61 1003 10 16 0.00 0.00
11:59 am 11:59 Mostly Cloudy 46 7.8 35 1.7 66 66 W 12 19 29.60 1002 10 16 0.00 0.00
12:59 pm 12:59 Mostly Cloudy 48 8.9 30 -1.1 50 50 W 14 22 29.57 1001 10 16 0.00 0.00
1:59 pm 13:59 Mostly Cloudy 47 8.3 28 -2.2 48 48 WSW 16 26 29.56 1001 10 16 0.00 0.00
2:59 pm 14:59 Mostly Cloudy 47 8.3 27 -2.8 46 46 W 14 22 29.56 1001 10 16 0.00 0.00
3:59 pm 15:59 Cloudy 46 7.8 29 -1.7 51 51 W 13 20 29.59 1002 10 16 0.00 0.00
4:59 pm 16:59 Mostly Cloudy 45 7.2 28 -2.2 52 52 W 12 19 29.61 1003 10 16 0.00 0.00
5:59 pm 17:59 Mostly Cloudy 44 6.7 27 -2.8 51 51 W 9 15 29.63 1004 10 16 0.00 0.00
6:59 pm 18:59 Cloudy 44 6.7 25 -3.9 47 47 W 15 24 29.66 1005 10 16 0.00 0.00
7:59 pm 19:59 Cloudy 43 6.1 23 -5 45 45 W 12 19 29.69 1005 10 16 0.00 0.00
8:59 pm 20:59 Cloudy 41 5 20 -6.7 43 43 W 18 30 29.72 1006 10 16 0.00 0.00
9:59 pm 21:59 Cloudy 39 3.9 17 -8.3 41 41 W 17 28 29.73 1007 10 16 0.00 0.00
10:59 pm 22:59 Cloudy 38 3.3 17 -8.3 43 43 W 23 37 29.74 1007 10 16 0.00 0.00
11:59 pm 23:59 Cloudy 37 2.8 18 -7.8 46 46 W 17 28 29.74 1007 10 16 0.00 0.00

Powered by AerisWeather